Date String (YYYY-MM-DD hh:mm:ss) UTC,Instrument flags,absolute air pressure of the measurement (hPa),sample flow rate (lpm),inlet stack bypass flow (lpm),air temperature of the measurement (°C),ambient temperature measured by the external sensor (°C),aerosol sample conditioner tube jacket temperature (°C),OPC LED temperature (°C),internal box temperature (°C),relative humidity of the measurement (%),span deviation,mass concentration of particles derived from Lorenz-Mie calculation of OPC scattering (μg/m³),mass concentration of particles derived from Lorenz-Mie calculation of OPC scattering (μg/m³),mass concentration of particles derived from Lorenz-Mie calculation of OPC scattering (μg/m³)
DateTimeUTC,F1_M11,P_M11,Q1_M11,Q2_M11,T1_M11,T2_M11,T3_M11,T4_M11,T5_M11,U1_M11,ZSPAN_M11,X0_M11,X2_M11,X1_M11
2023-08-14 00:00:00,SystemResetWarning,0838.2,4.99,000.00,029.2,026.5,000.0,037.7,030.7,24.9,0000.0,0010.29,0003.93,0003.24
2023-08-14 00:01:00,SystemResetWarning,0838.2,5.00,000.00,029.2,026.9,000.0,037.7,030.8,25.1,0000.0,0010.41,0003.91,0003.24
2023-08-14 00:02:00,SystemResetWarning,0838.2,5.00,000.00,029.3,027.2,000.0,037.7,030.9,24.9,0000.0,0010.50,0003.91,0003.24
2023-08-14 00:03:00,SystemResetWarning,0838.2,5.01,000.00,029.3,027.5,000.0,037.7,031.0,24.9,0000.0,0010.22,0003.91,0003.25
2023-08-14 00:04:00,SystemResetWarning,0838.2,5.00,000.00,029.3,027.7,000.0,037.8,031.0,24.9,0000.0,0008.97,0003.90,0003.25
2023-08-14 00:05:00,SystemResetWarning,0838.2,5.00,000.00,029.4,027.9,000.0,037.8,031.1,24.8,0000.0,0008.86,0003.91,0003.26
2023-08-14 00:06:00,SystemResetWarning,0838.2,5.01,000.00,029.4,028.1,000.0,037.8,031.1,24.7,0000.0,0008.84,0003.94,0003.27
2023-08-14 00:07:00,SystemResetWarning,0838.1,5.00,000.00,029.5,028.3,000.0,037.9,031.2,24.8,0000.0,0009.06,0003.93,0003.28
2023-08-14 00:08:00,SystemResetWarning,0838.2,5.00,000.00,029.5,028.4,000.0,037.9,031.3,24.9,0000.0,0010.16,0003.90,0003.28
2023-08-14 00:09:00,SystemResetWarning,0838.2,4.98,000.00,029.5,027.8,000.0,037.8,031.2,24.8,0000.0,0010.49,0003.91,0003.29
2023-08-14 00:10:00,SystemResetWarning,0838.2,5.01,000.00,029.5,026.0,000.0,037.7,030.9,24.9,0000.0,0010.55,0003.95,0003.29
2023-08-14 00:11:00,SystemResetWarning,0838.2,5.02,000.00,029.4,025.6,000.0,037.6,030.7,25.1,0000.0,0010.12,0003.94,0003.30
2023-08-14 00:12:00,SystemResetWarning,0838.1,4.99,000.00,029.3,025.8,000.0,037.7,030.6,25.0,0000.0,0010.21,0003.93,0003.31
2023-08-14 00:13:00,SystemResetWarning,0838.2,5.00,000.00,029.3,026.2,000.0,037.7,030.7,25.0,0000.0,0011.00,0003.91,0003.30
2023-08-14 00:14:00,SystemResetWarning,0838.2,5.01,000.00,029.3,026.6,000.0,037.7,030.8,25.0,0000.0,0011.03,0003.92,0003.30
2023-08-14 00:15:00,SystemResetWarning,0838.1,5.00,000.00,029.3,026.9,000.0,037.7,030.9,25.1,0000.0,0010.94,0003.90,0003.29
2023-08-14 00:16:00,SystemResetWarning,0838.1,5.00,000.00,029.3,027.2,000.0,037.8,030.9,25.1,0000.0,0010.75,0003.94,0003.28
2023-08-14 00:17:00,SystemResetWarning,0838.2,5.00,000.00,029.3,027.5,000.0,037.8,031.0,25.1,0000.0,0010.66,0003.92,0003.27
2023-08-14 00:18:00,SystemResetWarning,0838.2,5.00,000.00,029.4,027.8,000.0,037.8,031.1,24.9,0000.0,0010.73,0003.94,0003.26
2023-08-14 00:19:00,SystemResetWarning,0838.2,5.00,000.00,029.4,028.0,000.0,037.8,031.1,25.1,0000.0,0009.54,0003.93,0003.26
2023-08-14 00:20:00,SystemResetWarning,0838.2,5.00,000.00,029.4,028.1,000.0,037.8,031.2,24.8,0000.0,0009.30,0003.91,0003.26
2023-08-14 00:21:00,SystemResetWarning,0838.3,5.00,000.00,029.5,028.3,000.0,037.9,031.2,24.8,0000.0,0009.62,0003.89,0003.25
2023-08-14 00:22:00,SystemResetWarning,0838.3,5.00,000.00,029.5,028.1,000.0,037.9,031.2,24.8,0000.0,0009.67,0003.87,0003.24
2023-08-14 00:23:00,SystemResetWarning,0838.3,4.99,000.00,029.5,026.4,000.0,037.8,030.9,24.8,0000.0,0009.74,0003.86,0003.22
2023-08-14 00:24:00,SystemResetWarning,0838.2,5.01,000.00,029.4,025.6,000.0,037.6,030.7,24.8,0000.0,0008.67,0003.84,0003.23
2023-08-14 00:25:00,SystemResetWarning,0838.2,5.01,000.00,029.3,025.7,000.0,037.6,030.6,25.0,0000.0,0008.58,0003.84,0003.24
2023-08-14 00:26:00,SystemResetWarning,0838.2,4.99,000.00,029.3,026.0,000.0,037.7,030.6,25.0,0000.0,0008.63,0003.85,0003.24
2023-08-14 00:27:00,SystemResetWarning,0838.2,5.00,000.00,029.2,026.4,000.0,037.7,030.7,25.1,0000.0,0008.55,0003.80,0003.24
2023-08-14 00:28:00,SystemResetWarning,0838.2,5.00,000.00,029.3,026.8,000.0,037.7,030.8,25.2,0000.0,0008.30,0003.79,0003.25
2023-08-14 00:29:00,SystemResetWarning,0838.3,5.01,000.00,029.3,027.1,000.0,037.8,030.9,25.2,0000.0,0008.10,0003.75,0003.25
2023-08-14 00:30:00,SystemResetWarning,0838.3,5.00,000.00,029.3,027.4,000.0,037.8,031.0,25.1,0000.0,0008.13,0003.76,0003.25
2023-08-14 00:31:00,SystemResetWarning,0838.3,5.00,000.00,029.3,027.7,000.0,037.8,031.0,25.1,0000.0,0008.00,0003.77,0003.25
2023-08-14 00:32:00,SystemResetWarning,0838.3,5.00,000.00,029.4,027.9,000.0,037.8,031.1,25.0,0000.0,0007.63,0003.79,0003.25
2023-08-14 00:33:00,SystemResetWarning,0838.3,5.00,000.00,029.4,028.1,000.0,037.8,031.1,25.0,0000.0,0007.71,0003.81,0003.25
2023-08-14 00:34:00,SystemResetWarning,0838.3,5.00,000.00,029.5,028.2,000.0,037.9,031.2,25.2,0000.0,0007.39,0003.80,0003.26
2023-08-14 00:35:00,SystemResetWarning,0838.3,5.00,000.00,029.5,028.3,000.0,037.9,031.2,25.1,0000.0,0007.37,0003.82,0003.26
2023-08-14 00:36:00,SystemResetWarning,0838.2,5.00,000.00,029.5,027.1,000.0,037.8,031.0,25.3,0000.0,0007.21,0003.80,0003.24
2023-08-14 00:37:00,SystemResetWarning,0838.2,5.00,000.00,029.4,025.7,000.0,037.7,030.7,25.6,0000.0,0007.17,0003.79,0003.25
2023-08-14 00:38:00,SystemResetWarning,0838.2,5.01,000.00,029.3,025.6,000.0,037.6,030.6,25.8,0000.0,0007.08,0003.79,0003.25
2023-08-14 00:39:00,SystemResetWarning,0838.2,5.01,000.00,029.2,025.9,000.0,037.7,030.5,25.8,0000.0,0007.31,0003.80,0003.24
2023-08-14 00:40:00,SystemResetWarning,0838.2,5.00,000.00,029.2,026.3,000.0,037.7,030.6,25.8,0000.0,0007.87,0003.82,0003.25
2023-08-14 00:41:00,SystemResetWarning,0838.2,5.00,000.00,029.2,026.7,000.0,037.7,030.8,25.7,0000.0,0008.25,0003.81,0003.25
2023-08-14 00:42:00,SystemResetWarning,0838.2,5.00,000.00,029.2,027.0,000.0,037.7,030.8,25.6,0000.0,0008.41,0003.79,0003.25
2023-08-14 00:43:00,SystemResetWarning,0838.2,5.00,000.00,029.3,027.3,000.0,037.8,030.9,25.7,0000.0,0009.15,0003.76,0003.25
2023-08-14 00:44:00,SystemResetWarning,0838.2,4.99,000.00,029.3,027.6,000.0,037.8,031.0,25.4,0000.0,0009.16,0003.76,0003.25
2023-08-14 00:45:00,SystemResetWarning,0838.1,5.00,000.00,029.3,027.8,000.0,037.8,031.1,25.2,0000.0,0009.21,0003.77,0003.26
2023-08-14 00:46:00,SystemResetWarning,0838.1,5.00,000.00,029.4,028.0,000.0,037.8,031.1,25.2,0000.0,0009.18,0003.76,0003.26
2023-08-14 00:47:00,SystemResetWarning,0838.2,5.00,000.00,029.4,028.1,000.0,037.8,031.1,25.3,0000.0,0009.44,0003.83,0003.26
2023-08-14 00:48:00,SystemResetWarning,0838.2,5.00,000.00,029.5,028.3,000.0,037.9,031.2,25.2,0000.0,0009.60,0003.84,0003.26
2023-08-14 00:49:00,SystemResetWarning,0838.2,4.99,000.00,029.5,027.7,000.0,037.8,031.1,25.2,0000.0,0009.71,0003.87,0003.27
2023-08-14 00:50:00,SystemResetWarning,0838.2,4.99,000.00,029.4,025.9,000.0,037.7,030.8,25.1,0000.0,0009.70,0003.91,0003.27
2023-08-14 00:51:00,SystemResetWarning,0838.2,5.01,000.00,029.4,025.5,000.0,037.6,030.7,25.2,0000.0,0009.94,0003.89,0003.27
2023-08-14 00:52:00,SystemResetWarning,0838.2,5.02,000.00,029.3,025.7,000.0,037.6,030.6,25.6,0000.0,0010.40,0003.90,0003.28
2023-08-14 00:53:00,SystemResetWarning,0838.2,5.00,000.00,029.2,026.1,000.0,037.7,030.6,25.6,0000.0,0010.21,0003.90,0003.27
2023-08-14 00:54:00,SystemResetWarning,0838.3,5.00,000.00,029.2,026.5,000.0,037.7,030.7,25.8,0000.0,0009.47,0003.92,0003.27
2023-08-14 00:55:00,SystemResetWarning,0838.3,5.01,000.00,029.2,026.9,000.0,037.7,030.8,26.1,0000.0,0009.49,0003.92,0003.27
2023-08-14 00:56:00,SystemResetWarning,0838.3,4.99,000.00,029.3,027.2,000.0,037.7,030.9,26.1,0000.0,0010.27,0003.90,0003.27
2023-08-14 00:57:00,SystemResetWarning,0838.3,5.00,000.00,029.3,027.5,000.0,037.8,031.0,26.1,0000.0,0010.33,0003.90,0003.27
2023-08-14 00:58:00,SystemResetWarning,0838.3,5.01,000.00,029.3,027.7,000.0,037.8,031.0,25.9,0000.0,0010.16,0003.86,0003.26
2023-08-14 00:59:00,SystemResetWarning,0838.3,5.01,000.00,029.4,027.9,000.0,037.8,031.1,25.9,0000.0,0010.01,0003.85,0003.27
